Time,TemperatureF,DewpointF,PressureIn,WindDirection,WindDirectionDegrees,WindSpeedMPH,WindSpeedGustMPH,Humidity,HourlyPrecipIn,Conditions,Clouds,dailyrainin,SoftwareType,DateUTC
2013-01-20 00:00:00,44.2,40.9,29.90,SW,225,2.4,2.4,88,0.00,CLR,,0.08,WeatherDisplay:10.37,2013-01-20 05:00:00,
2013-01-20 00:01:00,44.4,41.1,29.90,SW,225,2.4,2.4,88,0.00,RA,,0.00,WeatherDisplay:10.37,2013-01-20 05:01:00,
2013-01-20 00:02:00,44.6,41.3,29.90,SW,225,2.4,2.4,88,0.00,RA,,0.00,WeatherDisplay:10.37,2013-01-20 05:02:00,
2013-01-20 00:03:00,44.6,41.3,29.90,SW,225,2.4,2.4,88,0.00,RA,,0.00,WeatherDisplay:10.37,2013-01-20 05:03:00,
2013-01-20 00:08:00,44.8,41.4,29.90,SW,225,2.4,2.4,88,0.00,RA,,0.00,WeatherDisplay:10.37,2013-01-20 05:08:00,
2013-01-20 00:13:00,45.0,41.6,29.89,SW,225,2.4,2.4,88,0.00,CLR,,0.00,WeatherDisplay:10.37,2013-01-20 05:13:00,
2013-01-20 00:18:00,45.1,41.8,29.89,SW,225,2.4,2.4,88,0.00,CLR,,0.00,WeatherDisplay:10.37,2013-01-20 05:18:00,
2013-01-20 00:23:00,45.7,42.3,29.89,WNW,292,9.2,9.2,88,0.00,CLR,,0.00,WeatherDisplay:10.37,2013-01-20 05:23:00,
2013-01-20 00:28:00,46.0,42.7,29.89,WNW,292,9.2,9.2,88,0.00,CLR,,0.00,WeatherDisplay:10.37,2013-01-20 05:28:00,
2013-01-20 00:33:00,46.4,42.7,29.88,WNW,292,9.2,9.2,87,0.00,CLR,,0.00,WeatherDisplay:10.37,2013-01-20 05:33:00,
2013-01-20 00:38:00,46.8,43.1,29.88,WNW,292,9.2,9.2,87,0.00,CLR,,0.00,WeatherDisplay:10.37,2013-01-20 05:38:00,
2013-01-20 00:43:00,46.8,42.8,29.87,WNW,292,9.2,9.2,86,0.00,CLR,,0.00,WeatherDisplay:10.37,2013-01-20 05:43:00,
2013-01-20 00:48:00,46.8,43.1,29.87,WNW,292,9.2,9.2,87,0.00,CLR,,0.00,WeatherDisplay:10.37,2013-01-20 05:48:00,
2013-01-20 00:53:00,46.8,43.1,29.87,WNW,292,9.2,9.2,87,0.00,CLR,,0.00,WeatherDisplay:10.37,2013-01-20 05:53:00,
2013-01-20 00:58:00,46.9,43.3,29.87,WNW,292,9.2,9.2,87,0.00,CLR,,0.00,WeatherDisplay:10.37,2013-01-20 05:58:00,
2013-01-20 01:03:00,46.9,43.3,29.87,WNW,292,9.2,9.2,87,0.00,CLR,,0.00,WeatherDisplay:10.37,2013-01-20 06:03:00,
2013-01-20 01:08:00,47.1,43.4,29.87,WNW,292,9.2,9.2,87,0.00,CLR,,0.00,WeatherDisplay:10.37,2013-01-20 06:08:00,
2013-01-20 01:13:00,47.1,43.4,29.86,WNW,292,9.2,9.2,87,0.00,CLR,,0.00,WeatherDisplay:10.37,2013-01-20 06:13:00,
2013-01-20 01:18:00,47.5,43.8,29.86,WNW,292,9.2,9.2,87,0.00,CLR,,0.00,WeatherDisplay:10.37,2013-01-20 06:18:00,
2013-01-20 01:23:00,47.5,43.5,29.86,WNW,292,9.2,9.2,86,0.00,CLR,,0.00,WeatherDisplay:10.37,2013-01-20 06:23:00,
2013-01-20 01:28:00,47.5,43.5,29.86,WNW,292,9.2,9.2,86,0.00,CLR,,0.00,WeatherDisplay:10.37,2013-01-20 06:28:00,
2013-01-20 01:33:00,47.5,43.5,29.86,WNW,292,9.2,9.2,86,0.00,CLR,,0.00,WeatherDisplay:10.37,2013-01-20 06:33:00,
2013-01-20 01:38:00,47.5,43.5,29.86,WNW,292,9.2,9.2,86,0.00,CLR,,0.00,WeatherDisplay:10.37,2013-01-20 06:38:00,
2013-01-20 01:43:00,47.5,43.5,29.86,WNW,292,9.2,9.2,86,0.00,CLR,,0.00,WeatherDisplay:10.37,2013-01-20 06:43:00,
2013-01-20 01:48:00,47.7,43.7,29.86,WNW,292,9.2,9.2,86,0.00,CLR,,0.00,WeatherDisplay:10.37,2013-01-20 06:48:00,
2013-01-20 01:53:00,47.8,43.5,29.86,WNW,292,9.2,9.2,85,0.00,CLR,,0.00,WeatherDisplay:10.37,2013-01-20 06:53:00,
2013-01-20 01:58:00,47.8,43.5,29.85,WNW,292,9.2,9.2,85,0.00,CLR,,0.00,WeatherDisplay:10.37,2013-01-20 06:58:00,
2013-01-20 02:03:00,47.8,43.5,29.85,WNW,292,9.2,9.2,85,0.00,CLR,,0.00,WeatherDisplay:10.37,2013-01-20 07:03:00,
2013-01-20 02:08:00,47.7,43.4,29.85,WNW,292,9.2,9.2,85,0.00,CLR,,0.00,WeatherDisplay:10.37,2013-01-20 07:08:00,
2013-01-20 02:13:00,47.7,43.4,29.85,WNW,292,9.2,9.2,85,0.00,CLR,,0.00,WeatherDisplay:10.37,2013-01-20 07:13:00,
2013-01-20 02:18:00,47.5,43.2,29.85,WNW,292,9.2,9.2,85,0.00,CLR,,0.00,WeatherDisplay:10.37,2013-01-20 07:18:00,
2013-01-20 02:23:00,47.3,42.7,29.85,WNW,292,9.2,9.2,84,0.00,CLR,,0.00,WeatherDisplay:10.37,2013-01-20 07:23:00,
2013-01-20 02:28:00,47.3,42.7,29.85,WNW,292,9.2,9.2,84,0.00,CLR,,0.00,WeatherDisplay:10.37,2013-01-20 07:28:00,
2013-01-20 02:33:00,47.1,42.5,29.84,WNW,292,9.2,9.2,84,0.00,CLR,,0.00,WeatherDisplay:10.37,2013-01-20 07:33:00,
2013-01-20 02:38:00,47.1,42.5,29.83,WNW,292,9.2,9.2,84,0.00,CLR,,0.00,WeatherDisplay:10.37,2013-01-20 07:38:00,
2013-01-20 02:43:00,46.9,42.0,29.83,WNW,292,9.2,9.2,83,0.00,CLR,,0.00,WeatherDisplay:10.37,2013-01-20 07:43:00,
2013-01-20 02:48:00,46.9,42.0,29.83,WNW,292,9.2,9.2,83,0.00,CLR,,0.00,WeatherDisplay:10.37,2013-01-20 07:48:00,
2013-01-20 02:53:00,46.8,41.9,29.82,WNW,292,9.2,9.2,83,0.00,CLR,,0.00,WeatherDisplay:10.37,2013-01-20 07:53:00,
2013-01-20 02:58:00,46.8,41.9,29.81,South,180,8.7,9.2,83,0.00,CLR,,0.00,WeatherDisplay:10.37,2013-01-20 07:58:00,
2013-01-20 03:03:00,46.8,41.9,29.81,South,180,8.7,9.2,83,0.00,CLR,,0.00,WeatherDisplay:10.37,2013-01-20 08:03:00,
2013-01-20 03:08:00,46.6,41.7,29.81,SSW,202,10.5,10.5,83,0.00,CLR,,0.00,WeatherDisplay:10.37,2013-01-20 08:08:00,
2013-01-20 03:13:00,46.4,41.5,29.80,SSW,202,10.5,10.5,83,0.00,CLR,,0.00,WeatherDisplay:10.37,2013-01-20 08:13:00,
2013-01-20 03:18:00,46.4,41.2,29.80,SSW,202,10.5,10.5,82,0.00,CLR,,0.00,WeatherDisplay:10.37,2013-01-20 08:18:00,
2013-01-20 03:23:00,46.2,41.0,29.80,SSW,202,10.5,10.5,82,0.00,CLR,,0.00,WeatherDisplay:10.37,2013-01-20 08:23:00,
2013-01-20 03:28:00,46.2,40.7,29.80,SSW,202,10.5,10.5,81,0.00,CLR,,0.00,WeatherDisplay:10.37,2013-01-20 08:28:00,
2013-01-20 03:33:00,46.0,40.5,29.79,SSW,202,10.5,10.5,81,0.00,CLR,,0.00,WeatherDisplay:10.37,2013-01-20 08:33:00,
2013-01-20 03:38:00,45.9,40.7,29.78,SSW,202,10.5,10.5,82,0.00,CLR,,0.00,WeatherDisplay:10.37,2013-01-20 08:38:00,
2013-01-20 03:43:00,45.7,40.2,29.78,SSW,202,10.5,10.5,81,0.00,CLR,,0.00,WeatherDisplay:10.37,2013-01-20 08:43:00,
2013-01-20 03:48:00,45.7,40.2,29.77,SSW,202,10.5,10.5,81,0.00,CLR,,0.00,WeatherDisplay:10.37,2013-01-20 08:48:00,
2013-01-20 03:53:00,45.5,40.3,29.77,SSW,202,10.5,10.5,82,0.00,CLR,,0.00,WeatherDisplay:10.37,2013-01-20 08:53:00,
2013-01-20 03:58:00,45.3,40.1,29.77,SSW,202,10.5,10.5,82,0.00,CLR,,0.00,WeatherDisplay:10.37,2013-01-20 08:58:00,
2013-01-20 04:03:00,45.3,39.8,29.77,SSW,202,10.5,10.5,81,0.00,CLR,,0.00,WeatherDisplay:10.37,2013-01-20 09:03:00,
2013-01-20 04:08:00,45.3,39.8,29.77,SSW,202,10.5,10.5,81,0.00,CLR,,0.00,WeatherDisplay:10.37,2013-01-20 09:08:00,
2013-01-20 04:13:00,45.3,39.8,29.77,SSW,202,10.5,10.5,81,0.00,CLR,,0.00,WeatherDisplay:10.37,2013-01-20 09:13:00,
2013-01-20 04:18:00,45.3,39.5,29.76,SSW,202,10.5,10.5,80,0.00,CLR,,0.00,WeatherDisplay:10.37,2013-01-20 09:18:00,
2013-01-20 04:23:00,45.3,39.5,29.76,SSW,202,10.5,10.5,80,0.00,CLR,,0.00,WeatherDisplay:10.37,2013-01-20 09:23:00,
2013-01-20 04:28:00,45.3,39.8,29.76,SSW,202,10.5,10.5,81,0.00,CLR,,0.00,WeatherDisplay:10.37,2013-01-20 09:28:00,
2013-01-20 04:33:00,45.5,40.0,29.76,WSW,248,7.8,9.2,81,0.00,CLR,,0.00,WeatherDisplay:10.37,2013-01-20 09:33:00,
2013-01-20 04:38:00,45.5,40.0,29.75,SW,225,5.6,5.8,81,0.00,CLR,,0.00,WeatherDisplay:10.37,2013-01-20 09:38:00,
2013-01-20 04:43:00,45.5,39.7,29.75,SSW,202,11.4,11.5,80,0.00,CLR,,0.00,WeatherDisplay:10.37,2013-01-20 09:43:00,
2013-01-20 04:48:00,45.5,39.4,29.75,SSW,202,11.4,11.5,79,0.00,CLR,,0.00,WeatherDisplay:10.37,2013-01-20 09:48:00,
2013-01-20 04:53:00,45.7,39.5,29.74,SSW,202,11.4,11.5,79,0.00,CLR,,0.00,WeatherDisplay:10.37,2013-01-20 09:53:00,
2013-01-20 04:58:00,45.7,39.2,29.74,SSW,202,10.2,10.4,78,0.00,CLR,,0.00,WeatherDisplay:10.37,2013-01-20 09:58:00,
2013-01-20 05:03:00,45.7,39.2,29.74,SSW,202,15.0,15.0,78,0.00,CLR,,0.00,WeatherDisplay:10.37,2013-01-20 10:03:00,
2013-01-20 05:08:00,45.7,39.2,29.74,SW,225,11.8,11.8,78,0.00,CLR,,0.00,WeatherDisplay:10.37,2013-01-20 10:08:00,
2013-01-20 05:13:00,45.5,39.0,29.73,SW,225,6.7,11.5,78,0.00,CLR,,0.00,WeatherDisplay:10.37,2013-01-20 10:13:00,
2013-01-20 05:18:00,45.5,39.4,29.73,WSW,248,6.7,6.7,79,0.00,CLR,,0.00,WeatherDisplay:10.37,2013-01-20 10:18:00,
2013-01-20 05:23:00,45.3,39.2,29.73,WSW,248,12.3,13.8,79,0.00,CLR,,0.00,WeatherDisplay:10.37,2013-01-20 10:23:00,
2013-01-20 05:28:00,45.3,39.2,29.72,WSW,248,12.3,12.7,79,0.00,CLR,,0.00,WeatherDisplay:10.37,2013-01-20 10:28:00,
2013-01-20 05:33:00,45.3,39.5,29.72,SSW,202,7.8,12.7,80,0.00,CLR,,0.00,WeatherDisplay:10.37,2013-01-20 10:33:00,
2013-01-20 05:38:00,45.3,39.5,29.72,SW,225,14.0,14.0,80,0.00,CLR,,0.00,WeatherDisplay:10.37,2013-01-20 10:38:00,
2013-01-20 05:43:00,45.3,39.5,29.72,SSE,158,14.7,15.0,80,0.00,CLR,,0.00,WeatherDisplay:10.37,2013-01-20 10:43:00,
2013-01-20 05:48:00,45.3,39.5,29.72,SW,225,9.7,9.7,80,0.00,CLR,,0.00,WeatherDisplay:10.37,2013-01-20 10:48:00,
2013-01-20 05:53:00,45.3,39.5,29.72,SW,225,9.7,9.7,80,0.00,CLR,,0.00,WeatherDisplay:10.37,2013-01-20 10:53:00,
2013-01-20 05:58:00,45.3,39.5,29.72,SSW,202,12.1,12.1,80,0.00,CLR,,0.00,WeatherDisplay:10.37,2013-01-20 10:58:00,
2013-01-20 06:03:00,45.3,39.5,29.71,SSW,202,6.2,6.2,80,0.00,CLR,,0.00,WeatherDisplay:10.37,2013-01-20 11:03:00,
2013-01-20 06:08:00,45.3,39.2,29.71,SSW,202,9.2,9.2,79,0.00,CLR,,0.00,WeatherDisplay:10.37,2013-01-20 11:08:00,
2013-01-20 06:13:00,45.3,39.2,29.71,SW,225,15.4,15.4,79,0.00,CLR,,0.00,WeatherDisplay:10.37,2013-01-20 11:13:00,
2013-01-20 06:18:00,45.3,39.5,29.71,SW,225,15.4,15.4,80,0.00,CLR,,0.00,WeatherDisplay:10.37,2013-01-20 11:18:00,
2013-01-20 06:23:00,45.3,39.5,29.71,SSW,202,4.9,4.9,80,0.00,CLR,,0.00,WeatherDisplay:10.37,2013-01-20 11:23:00,
2013-01-20 06:28:00,45.1,39.7,29.70,SSW,202,4.9,4.9,81,0.00,CLR,,0.00,WeatherDisplay:10.37,2013-01-20 11:28:00,
2013-01-20 06:33:00,45.1,39.7,29.70,SSW,202,4.9,4.9,81,0.00,CLR,,0.00,WeatherDisplay:10.37,2013-01-20 11:33:00,
2013-01-20 06:38:00,45.1,39.7,29.70,SSW,202,4.9,4.9,81,0.00,CLR,,0.00,WeatherDisplay:10.37,2013-01-20 11:38:00,
2013-01-20 06:43:00,45.0,39.5,29.69,SSW,202,4.9,4.9,81,0.00,CLR,,0.00,WeatherDisplay:10.37,2013-01-20 11:43:00,
2013-01-20 06:48:00,45.0,39.5,29.69,SSW,202,4.9,4.9,81,0.00,CLR,,0.00,WeatherDisplay:10.37,2013-01-20 11:48:00,
2013-01-20 06:53:00,45.0,39.5,29.69,SSW,202,4.9,4.9,81,0.00,CLR,,0.00,WeatherDisplay:10.37,2013-01-20 11:53:00,
2013-01-20 06:58:00,45.0,39.8,29.69,SSW,202,4.9,4.9,82,0.00,CLR,,0.00,WeatherDisplay:10.37,2013-01-20 11:58:00,
2013-01-20 07:03:00,45.0,39.5,29.68,SSW,202,4.9,4.9,81,0.00,CLR,,0.00,WeatherDisplay:10.37,2013-01-20 12:03:00,
2013-01-20 07:08:00,44.8,39.6,29.68,SSW,202,4.9,4.9,82,0.00,CLR,,0.00,WeatherDisplay:10.37,2013-01-20 12:08:00,
2013-01-20 07:13:00,44.6,39.4,29.68,SSW,202,4.9,4.9,82,0.00,CLR,,0.00,WeatherDisplay:10.37,2013-01-20 12:13:00,
2013-01-20 07:18:00,44.6,39.4,29.68,SSW,202,4.9,4.9,82,0.00,CLR,,0.00,WeatherDisplay:10.37,2013-01-20 12:18:00,
2013-01-20 07:23:00,44.6,39.4,29.68,SSW,202,4.9,4.9,82,0.00,CLR,,0.00,WeatherDisplay:10.37,2013-01-20 12:23:00,
2013-01-20 07:28:00,44.8,39.6,29.67,SSW,202,4.9,4.9,82,0.00,CLR,,0.00,WeatherDisplay:10.37,2013-01-20 12:28:00,
2013-01-20 07:33:00,44.8,39.6,29.67,SSW,202,4.9,4.9,82,0.00,CLR,,0.00,WeatherDisplay:10.37,2013-01-20 12:33:00,
2013-01-20 07:38:00,45.0,39.5,29.67,SSW,202,4.9,4.9,81,0.00,CLR,,0.00,WeatherDisplay:10.37,2013-01-20 12:38:00,
2013-01-20 07:43:00,45.0,39.5,29.67,West,270,9.9,9.9,81,0.00,CLR,,0.00,WeatherDisplay:10.37,2013-01-20 12:43:00,
2013-01-20 07:48:00,45.1,39.7,29.67,South,180,6.2,10.4,81,0.00,CLR,,0.00,WeatherDisplay:10.37,2013-01-20 12:48:00,
2013-01-20 07:53:00,45.3,39.5,29.67,SW,225,9.2,11.5,80,0.00,CLR,,0.00,WeatherDisplay:10.37,2013-01-20 12:53:00,
2013-01-20 07:58:00,45.5,39.4,29.67,SSW,202,8.5,8.5,79,0.00,CLR,,0.00,WeatherDisplay:10.37,2013-01-20 12:58:00,
2013-01-20 08:03:00,45.7,39.5,29.66,South,180,11.6,11.6,79,0.00,CLR,,0.00,WeatherDisplay:10.37,2013-01-20 13:03:00,
2013-01-20 08:08:00,45.9,39.4,29.67,SW,225,18.5,18.5,78,0.00,CLR,,0.00,WeatherDisplay:10.37,2013-01-20 13:08:00,
2013-01-20 08:13:00,46.0,39.6,29.67,SW,225,13.5,13.8,78,0.00,CLR,,0.00,WeatherDisplay:10.37,2013-01-20 13:13:00,
2013-01-20 08:18:00,46.2,39.4,29.67,SW,225,7.6,8.1,77,0.00,CLR,,0.00,WeatherDisplay:10.37,2013-01-20 13:18:00,
2013-01-20 08:24:00,46.4,39.9,29.67,South,180,11.6,13.8,78,0.00,CLR,,0.00,WeatherDisplay:10.37,2013-01-20 13:24:00,
2013-01-20 08:29:00,46.6,39.8,29.67,SW,225,7.6,15.0,77,0.00,CLR,,0.00,WeatherDisplay:10.37,2013-01-20 13:29:00,
2013-01-20 08:34:00,46.9,40.1,29.67,SW,225,7.6,8.1,77,0.00,CLR,,0.00,WeatherDisplay:10.37,2013-01-20 13:34:00,
2013-01-20 08:39:00,47.3,40.1,29.67,SSW,202,2.6,8.1,76,0.00,CLR,,0.00,WeatherDisplay:10.37,2013-01-20 13:39:00,
2013-01-20 08:44:00,47.5,39.9,29.67,SSW,202,2.6,2.6,75,0.00,CLR,,0.00,WeatherDisplay:10.37,2013-01-20 13:44:00,
2013-01-20 08:49:00,47.8,40.0,29.67,SW,225,7.6,8.1,74,0.00,CLR,,0.00,WeatherDisplay:10.37,2013-01-20 13:49:00,
2013-01-20 08:54:00,48.2,40.3,29.67,SW,225,7.6,8.1,74,0.00,CLR,,0.00,WeatherDisplay:10.37,2013-01-20 13:54:00,
2013-01-20 08:59:00,48.6,40.6,29.66,SW,225,4.9,4.9,74,0.00,CLR,,0.00,WeatherDisplay:10.37,2013-01-20 13:59:00,
2013-01-20 09:04:00,48.6,40.3,29.66,WSW,248,6.2,16.1,73,0.00,CLR,,0.00,WeatherDisplay:10.37,2013-01-20 14:04:00,
2013-01-20 09:09:00,48.7,40.5,29.66,WSW,248,8.5,9.2,73,0.00,CLR,,0.00,WeatherDisplay:10.37,2013-01-20 14:09:00,
2013-01-20 09:14:00,48.9,40.6,29.66,WSW,248,8.5,8.5,73,0.00,CLR,,0.00,WeatherDisplay:10.37,2013-01-20 14:14:00,
2013-01-20 09:19:00,48.9,40.3,29.66,WSW,248,10.7,11.5,72,0.00,CLR,,0.00,WeatherDisplay:10.37,2013-01-20 14:19:00,
2013-01-20 09:24:00,49.3,40.3,29.65,SW,225,11.4,12.7,71,0.00,CLR,,0.00,WeatherDisplay:10.37,2013-01-20 14:24:00,
2013-01-20 09:29:00,49.3,40.3,29.65,WSW,248,6.2,11.5,71,0.00,CLR,,0.00,WeatherDisplay:10.37,2013-01-20 14:29:00,
2013-01-20 09:34:00,49.5,40.4,29.65,WSW,248,11.4,11.5,71,0.00,CLR,,0.00,WeatherDisplay:10.37,2013-01-20 14:34:00,
2013-01-20 09:39:00,49.6,39.9,29.64,WSW,248,9.4,19.6,69,0.00,CLR,,0.00,WeatherDisplay:10.37,2013-01-20 14:39:00,
2013-01-20 09:44:00,49.6,39.9,29.64,SSW,202,7.8,17.3,69,0.00,CLR,,0.00,WeatherDisplay:10.37,2013-01-20 14:44:00,
2013-01-20 09:49:00,50.0,39.8,29.65,SW,225,15.2,15.2,68,0.00,CLR,,0.00,WeatherDisplay:10.37,2013-01-20 14:49:00,
2013-01-20 09:54:00,50.0,39.5,29.65,SW,225,6.9,9.2,67,0.00,CLR,,0.00,WeatherDisplay:10.37,2013-01-20 14:54:00,
2013-01-20 09:59:00,50.4,40.2,29.65,SW,225,8.1,8.1,68,0.00,CLR,,0.00,WeatherDisplay:10.37,2013-01-20 14:59:00,
2013-01-20 10:04:00,50.4,39.8,29.65,SSW,202,3.1,8.1,67,0.00,CLR,,0.00,WeatherDisplay:10.37,2013-01-20 15:04:00,
2013-01-20 10:09:00,50.5,40.4,29.65,WNW,292,12.1,12.1,68,0.00,CLR,,0.00,WeatherDisplay:10.37,2013-01-20 15:09:00,
2013-01-20 10:14:00,50.5,40.4,29.65,SW,225,17.5,17.5,68,0.00,CLR,,0.00,WeatherDisplay:10.37,2013-01-20 15:14:00,
2013-01-20 10:19:00,50.7,40.5,29.64,WSW,248,11.4,12.7,68,0.00,CLR,,0.00,WeatherDisplay:10.37,2013-01-20 15:19:00,
2013-01-20 10:24:00,50.7,40.5,29.64,SSW,202,6.2,6.9,68,0.00,CLR,,0.00,WeatherDisplay:10.37,2013-01-20 15:24:00,
2013-01-20 10:29:00,50.7,40.5,29.64,SW,225,9.2,15.0,68,0.00,CLR,,0.00,WeatherDisplay:10.37,2013-01-20 15:29:00,
2013-01-20 10:34:00,50.9,40.7,29.64,WSW,248,17.5,17.5,68,0.00,CLR,,0.00,WeatherDisplay:10.37,2013-01-20 15:34:00,
2013-01-20 10:39:00,50.9,40.7,29.64,WNW,292,17.3,17.3,68,0.00,CLR,,0.00,WeatherDisplay:10.37,2013-01-20 15:39:00,
2013-01-20 10:44:00,51.1,40.9,29.64,WNW,292,17.3,17.3,68,0.00,CLR,,0.00,WeatherDisplay:10.37,2013-01-20 15:44:00,
2013-01-20 10:49:00,51.1,40.9,29.63,SSW,202,6.0,17.3,68,0.00,CLR,,0.00,WeatherDisplay:10.37,2013-01-20 15:49:00,
2013-01-20 10:54:00,51.1,40.9,29.63,SW,225,13.0,17.3,68,0.00,CLR,,0.00,WeatherDisplay:10.37,2013-01-20 15:54:00,
2013-01-20 10:59:00,51.1,40.9,29.62,WSW,248,7.8,11.5,68,0.00,CLR,,0.00,WeatherDisplay:10.37,2013-01-20 15:59:00,
2013-01-20 11:04:00,51.3,41.1,29.62,SE,135,10.2,15.0,68,0.00,CLR,,0.00,WeatherDisplay:10.37,2013-01-20 16:04:00,
2013-01-20 11:09:00,51.3,41.1,29.62,SW,225,11.4,11.5,68,0.00,CLR,,0.00,WeatherDisplay:10.37,2013-01-20 16:09:00,
2013-01-20 11:14:00,51.3,41.1,29.61,SW,225,3.3,16.1,68,0.00,CLR,,0.00,WeatherDisplay:10.37,2013-01-20 16:14:00,
2013-01-20 11:19:00,51.4,41.2,29.61,WSW,248,7.1,13.8,68,0.00,CLR,,0.00,WeatherDisplay:10.37,2013-01-20 16:19:00,
2013-01-20 11:24:00,51.4,41.2,29.61,WSW,248,8.5,11.5,68,0.00,CLR,,0.00,WeatherDisplay:10.37,2013-01-20 16:24:00,
2013-01-20 11:29:00,51.4,41.2,29.60,South,180,6.7,13.8,68,0.00,CLR,,0.00,WeatherDisplay:10.37,2013-01-20 16:29:00,
2013-01-20 11:34:00,51.4,41.2,29.59,SSE,158,12.1,13.8,68,0.00,CLR,,0.00,WeatherDisplay:10.37,2013-01-20 16:34:00,
2013-01-20 11:39:00,51.4,41.2,29.59,SSW,202,3.1,13.8,68,0.00,CLR,,0.00,WeatherDisplay:10.37,2013-01-20 16:39:00,
2013-01-20 11:44:00,51.4,41.6,29.58,SSW,202,9.2,13.8,69,0.00,CLR,,0.00,WeatherDisplay:10.37,2013-01-20 16:44:00,
2013-01-20 11:49:00,51.4,41.2,29.58,SSW,202,11.2,12.7,68,0.00,CLR,,0.00,WeatherDisplay:10.37,2013-01-20 16:49:00,
2013-01-20 11:54:00,51.6,41.4,29.58,West,270,6.0,16.1,68,0.00,CLR,,0.00,WeatherDisplay:10.37,2013-01-20 16:54:00,
2013-01-20 11:59:00,51.6,41.4,29.58,SSW,202,11.4,11.5,68,0.00,CLR,,0.00,WeatherDisplay:10.37,2013-01-20 16:59:00,
2013-01-20 12:04:00,51.6,41.4,29.57,SSW,202,5.9,9.2,68,0.00,CLR,,0.00,WeatherDisplay:10.37,2013-01-20 17:04:00,
2013-01-20 12:09:00,51.8,41.6,29.57,SW,225,1.1,8.1,68,0.00,CLR,,0.00,WeatherDisplay:10.37,2013-01-20 17:09:00,
2013-01-20 12:14:00,51.8,41.2,29.56,SW,225,10.2,11.5,67,0.00,CLR,,0.00,WeatherDisplay:10.37,2013-01-20 17:14:00,
2013-01-20 12:19:00,51.8,40.8,29.56,SW,225,9.4,12.7,66,0.00,CLR,,0.00,WeatherDisplay:10.37,2013-01-20 17:19:00,
2013-01-20 12:24:00,51.8,40.4,29.56,SW,225,7.1,13.8,65,0.00,CLR,,0.00,WeatherDisplay:10.37,2013-01-20 17:24:00,
2013-01-20 12:29:00,51.8,40.8,29.56,SSW,202,5.9,16.1,66,0.00,CLR,,0.00,WeatherDisplay:10.37,2013-01-20 17:29:00,
2013-01-20 12:34:00,51.8,41.2,29.56,SSW,202,6.2,11.5,67,0.00,CLR,,0.00,WeatherDisplay:10.37,2013-01-20 17:34:00,
2013-01-20 12:39:00,51.8,41.6,29.56,SW,225,12.5,12.5,68,0.00,CLR,,0.00,WeatherDisplay:10.37,2013-01-20 17:39:00,
2013-01-20 12:44:00,51.8,41.6,29.56,WSW,248,8.7,13.8,68,0.00,CLR,,0.00,WeatherDisplay:10.37,2013-01-20 17:44:00,
2013-01-20 12:49:00,51.6,41.0,29.55,SW,225,7.4,7.4,67,0.00,CLR,,0.00,WeatherDisplay:10.37,2013-01-20 17:49:00,
2013-01-20 12:54:00,51.4,40.8,29.55,SW,225,2.9,16.1,67,0.00,CLR,,0.00,WeatherDisplay:10.37,2013-01-20 17:54:00,
2013-01-20 12:59:00,51.4,40.8,29.54,WSW,248,4.5,10.4,67,0.00,CLR,,0.00,WeatherDisplay:10.37,2013-01-20 17:59:00,
2013-01-20 13:04:00,51.4,40.5,29.54,WSW,248,12.1,12.1,66,0.00,CLR,,0.00,WeatherDisplay:10.37,2013-01-20 18:04:00,
2013-01-20 13:09:00,51.1,40.5,29.54,SW,225,4.5,11.5,67,0.00,CLR,,0.00,WeatherDisplay:10.37,2013-01-20 18:09:00,
2013-01-20 13:14:00,50.7,40.2,29.55,SW,225,8.7,15.0,67,0.00,CLR,,0.00,WeatherDisplay:10.37,2013-01-20 18:14:00,
2013-01-20 13:19:00,50.7,40.5,29.55,SW,225,5.4,10.4,68,0.00,CLR,,0.00,WeatherDisplay:10.37,2013-01-20 18:19:00,
2013-01-20 13:24:00,50.7,40.5,29.55,SW,225,2.6,11.5,68,0.00,CLR,,0.00,WeatherDisplay:10.37,2013-01-20 18:24:00,
2013-01-20 13:29:00,50.7,40.2,29.54,West,270,6.2,9.2,67,0.00,CLR,,0.00,WeatherDisplay:10.37,2013-01-20 18:29:00,
2013-01-20 13:34:00,51.1,40.5,29.55,WSW,248,8.3,9.2,67,0.00,CLR,,0.00,WeatherDisplay:10.37,2013-01-20 18:34:00,
2013-01-20 13:39:00,51.3,40.3,29.55,SSW,202,10.5,10.5,66,0.00,CLR,,0.00,WeatherDisplay:10.37,2013-01-20 18:39:00,
2013-01-20 13:44:00,51.1,40.1,29.55,WSW,248,5.6,15.0,66,0.00,CLR,,0.00,WeatherDisplay:10.37,2013-01-20 18:44:00,
2013-01-20 13:49:00,51.1,39.3,29.55,SSW,202,8.3,8.3,64,0.00,CLR,,0.00,WeatherDisplay:10.37,2013-01-20 18:49:00,
2013-01-20 13:54:00,51.3,39.1,29.55,NNW,338,4.9,8.1,63,0.00,CLR,,0.00,WeatherDisplay:10.37,2013-01-20 18:54:00,
2013-01-20 13:59:00,51.4,38.8,29.55,WSW,248,4.0,17.3,62,0.00,CLR,,0.00,WeatherDisplay:10.37,2013-01-20 18:59:00,
2013-01-20 14:04:00,51.6,37.3,29.55,SW,225,6.9,6.9,58,0.00,CLR,,0.00,WeatherDisplay:10.37,2013-01-20 19:04:00,
2013-01-20 14:09:00,51.8,36.1,29.55,NW,315,3.3,15.0,55,0.00,CLR,,0.00,WeatherDisplay:10.37,2013-01-20 19:09:00,
2013-01-20 14:14:00,51.8,35.7,29.55,NW,315,4.7,5.8,54,0.00,CLR,,0.00,WeatherDisplay:10.37,2013-01-20 19:14:00,
2013-01-20 14:19:00,51.8,35.2,29.55,SW,225,8.1,8.1,53,0.00,CLR,,0.00,WeatherDisplay:10.37,2013-01-20 19:19:00,
2013-01-20 14:24:00,51.8,35.2,29.56,WSW,248,5.4,8.1,53,0.00,CLR,,0.00,WeatherDisplay:10.37,2013-01-20 19:24:00,
2013-01-20 14:29:00,51.8,35.2,29.55,SSW,202,15.0,15.0,53,0.00,CLR,,0.00,WeatherDisplay:10.37,2013-01-20 19:29:00,
2013-01-20 14:34:00,51.6,34.6,29.56,WSW,248,5.9,15.0,52,0.00,CLR,,0.00,WeatherDisplay:10.37,2013-01-20 19:34:00,
2013-01-20 14:39:00,51.4,34.4,29.56,SSW,202,6.0,15.0,52,0.00,CLR,,0.00,WeatherDisplay:10.37,2013-01-20 19:39:00,
2013-01-20 14:44:00,51.4,34.4,29.56,WSW,248,5.4,13.8,52,0.00,CLR,,0.00,WeatherDisplay:10.37,2013-01-20 19:44:00,
2013-01-20 14:49:00,51.4,34.4,29.56,SW,225,9.0,13.8,52,0.00,CLR,,0.00,WeatherDisplay:10.37,2013-01-20 19:49:00,
2013-01-20 14:54:00,51.4,34.4,29.56,SSW,202,10.2,13.8,52,0.00,CLR,,0.00,WeatherDisplay:10.37,2013-01-20 19:54:00,
2013-01-20 14:59:00,51.1,34.5,29.57,SW,225,3.6,10.4,53,0.00,CLR,,0.00,WeatherDisplay:10.37,2013-01-20 19:59:00,
2013-01-20 15:04:00,50.9,34.4,29.56,SSW,202,6.7,11.5,53,0.00,CLR,,0.00,WeatherDisplay:10.37,2013-01-20 20:04:00,
2013-01-20 15:09:00,50.7,34.2,29.57,SSW,202,7.1,11.5,53,0.00,CLR,,0.00,WeatherDisplay:10.37,2013-01-20 20:09:00,
2013-01-20 15:14:00,50.4,34.3,29.57,WSW,248,9.7,11.5,54,0.00,CLR,,0.00,WeatherDisplay:10.37,2013-01-20 20:14:00,
2013-01-20 15:19:00,50.4,34.3,29.57,SW,225,2.4,9.2,54,0.00,CLR,,0.00,WeatherDisplay:10.37,2013-01-20 20:19:00,
2013-01-20 15:24:00,50.2,34.2,29.57,SW,225,6.0,10.4,54,0.00,CLR,,0.00,WeatherDisplay:10.37,2013-01-20 20:24:00,
2013-01-20 15:29:00,50.2,34.2,29.57,SW,225,3.1,10.4,54,0.00,CLR,,0.00,WeatherDisplay:10.37,2013-01-20 20:29:00,
2013-01-20 15:34:00,49.8,34.3,29.58,WSW,248,4.0,10.4,55,0.00,CLR,,0.00,WeatherDisplay:10.37,2013-01-20 20:34:00,
2013-01-20 15:39:00,49.6,34.1,29.58,WSW,248,6.9,10.4,55,0.00,CLR,,0.00,WeatherDisplay:10.37,2013-01-20 20:39:00,
2013-01-20 15:44:00,49.5,34.4,29.58,SW,225,4.5,10.4,56,0.00,CLR,,0.00,WeatherDisplay:10.37,2013-01-20 20:44:00,
2013-01-20 15:49:00,49.3,33.8,29.59,WSW,248,6.4,8.1,55,0.00,CLR,,0.00,WeatherDisplay:10.37,2013-01-20 20:49:00,
2013-01-20 15:54:00,49.1,34.5,29.59,NNW,338,2.0,6.9,57,0.00,CLR,,0.00,WeatherDisplay:10.37,2013-01-20 20:54:00,
2013-01-20 15:59:00,48.7,34.2,29.59,NNE,22,1.1,6.9,57,0.00,CLR,,0.00,WeatherDisplay:10.37,2013-01-20 20:59:00,
2013-01-20 16:04:00,48.6,34.4,29.60,SW,225,6.4,6.9,58,0.00,CLR,,0.00,WeatherDisplay:10.37,2013-01-20 21:04:00,
2013-01-20 16:09:00,48.4,34.3,29.60,WNW,292,3.6,6.9,58,0.00,CLR,,0.00,WeatherDisplay:10.37,2013-01-20 21:09:00,
2013-01-20 16:14:00,48.0,34.8,29.60,WSW,248,3.6,6.9,60,0.00,CLR,,0.00,WeatherDisplay:10.37,2013-01-20 21:14:00,
2013-01-20 16:19:00,47.8,34.6,29.60,SW,225,3.3,6.9,60,0.00,CLR,,0.00,WeatherDisplay:10.37,2013-01-20 21:19:00,
2013-01-20 16:24:00,47.7,34.9,29.61,NW,315,1.6,5.8,61,0.00,CLR,,0.00,WeatherDisplay:10.37,2013-01-20 21:24:00,
2013-01-20 16:29:00,47.5,34.7,29.61,SW,225,0.9,5.8,61,0.00,CLR,,0.00,WeatherDisplay:10.37,2013-01-20 21:29:00,
2013-01-20 16:34:00,47.3,34.5,29.61,SW,225,0.5,5.8,61,0.00,CLR,,0.00,WeatherDisplay:10.37,2013-01-20 21:34:00,
2013-01-20 16:40:00,47.1,34.4,29.61,West,270,3.1,4.6,61,0.00,CLR,,0.00,WeatherDisplay:10.37,2013-01-20 21:40:00,
2013-01-20 16:45:00,46.9,34.2,29.61,SW,225,1.1,5.8,61,0.00,CLR,,0.00,WeatherDisplay:10.37,2013-01-20 21:45:00,
2013-01-20 16:50:00,46.9,34.2,29.61,SW,225,1.1,5.8,61,0.00,CLR,,0.00,WeatherDisplay:10.37,2013-01-20 21:50:00,
2013-01-20 16:55:00,46.9,33.8,29.61,WSW,248,1.8,5.8,60,0.00,CLR,,0.00,WeatherDisplay:10.37,2013-01-20 21:55:00,
2013-01-20 17:00:00,46.8,34.0,29.62,NW,315,3.3,5.8,61,0.00,CLR,,0.00,WeatherDisplay:10.37,2013-01-20 22:00:00,
2013-01-20 17:05:00,46.8,34.0,29.62,SSW,202,1.1,5.8,61,0.00,CLR,,0.00,WeatherDisplay:10.37,2013-01-20 22:05:00,
2013-01-20 17:10:00,46.6,33.8,29.63,SSW,202,1.8,4.6,61,0.00,CLR,,0.00,WeatherDisplay:10.37,2013-01-20 22:10:00,
2013-01-20 17:15:00,46.6,33.8,29.62,South,180,1.4,3.5,61,0.00,CLR,,0.00,WeatherDisplay:10.37,2013-01-20 22:15:00,
2013-01-20 17:20:00,46.4,34.1,29.63,West,270,2.6,4.6,62,0.00,CLR,,0.00,WeatherDisplay:10.37,2013-01-20 22:20:00,
2013-01-20 17:25:00,46.4,34.1,29.63,NW,315,1.1,4.6,62,0.00,CLR,,0.00,WeatherDisplay:10.37,2013-01-20 22:25:00,
2013-01-20 17:30:00,46.4,34.1,29.63,West,270,3.3,4.6,62,0.00,CLR,,0.00,WeatherDisplay:10.37,2013-01-20 22:30:00,
2013-01-20 17:35:00,46.4,34.1,29.63,West,270,3.3,4.6,62,0.00,CLR,,0.00,WeatherDisplay:10.37,2013-01-20 22:35:00,
2013-01-20 17:40:00,46.0,34.1,29.64,SSW,202,0.5,3.5,63,0.00,CLR,,0.00,WeatherDisplay:10.37,2013-01-20 22:40:00,
2013-01-20 17:45:00,46.0,34.1,29.65,NNE,22,0.9,2.3,63,0.00,CLR,,0.00,WeatherDisplay:10.37,2013-01-20 22:45:00,
2013-01-20 17:50:00,45.9,34.0,29.65,West,270,0.7,2.3,63,0.00,CLR,,0.00,WeatherDisplay:10.37,2013-01-20 22:50:00,
2013-01-20 17:55:00,45.7,33.8,29.65,NW,315,0.5,2.3,63,0.00,CLR,,0.00,WeatherDisplay:10.37,2013-01-20 22:55:00,
2013-01-20 18:00:00,45.3,33.5,29.66,NNW,338,0.2,1.1,63,0.00,CLR,,0.00,WeatherDisplay:10.37,2013-01-20 23:00:00,
2013-01-20 18:05:00,45.0,33.1,29.67,WSW,248,0.7,1.1,63,0.00,CLR,,0.00,WeatherDisplay:10.37,2013-01-20 23:05:00,
2013-01-20 18:10:00,45.0,33.1,29.67,WSW,248,0.0,1.1,63,0.00,CLR,,0.00,WeatherDisplay:10.37,2013-01-20 23:10:00,
2013-01-20 18:15:00,44.6,33.2,29.67,WNW,292,0.5,1.1,64,0.00,CLR,,0.00,WeatherDisplay:10.37,2013-01-20 23:15:00,
2013-01-20 18:20:00,43.5,32.1,29.67,NW,315,0.0,1.1,64,0.00,CLR,,0.00,WeatherDisplay:10.37,2013-01-20 23:20:00,
2013-01-20 18:25:00,43.2,32.2,29.67,WSW,248,0.0,0.0,65,0.00,CLR,,0.00,WeatherDisplay:10.37,2013-01-20 23:25:00,
2013-01-20 18:30:00,43.0,32.0,29.68,WNW,292,1.4,1.4,65,0.00,CLR,,0.00,WeatherDisplay:10.37,2013-01-20 23:30:00,
2013-01-20 18:35:00,42.6,31.7,29.68,WNW,292,0.0,1.1,65,0.00,CLR,,0.00,WeatherDisplay:10.37,2013-01-20 23:35:00,
2013-01-20 18:40:00,42.3,31.3,29.68,WNW,292,0.0,0.0,65,0.00,CLR,,0.00,WeatherDisplay:10.37,2013-01-20 23:40:00,
2013-01-20 18:45:00,42.1,31.2,29.69,WNW,292,0.0,0.0,65,0.00,CLR,,0.00,WeatherDisplay:10.37,2013-01-20 23:45:00,
2013-01-20 18:50:00,41.9,31.4,29.69,WNW,292,0.0,0.0,66,0.00,CLR,,0.00,WeatherDisplay:10.37,2013-01-20 23:50:00,
2013-01-20 18:55:00,41.4,30.8,29.69,WNW,292,0.0,0.0,66,0.00,CLR,,0.00,WeatherDisplay:10.37,2013-01-20 23:55:00,
2013-01-20 19:00:00,41.0,30.5,29.69,WNW,292,0.5,0.0,66,0.00,CLR,,0.00,WeatherDisplay:10.37,2013-01-21 00:00:00,
2013-01-20 19:05:00,40.8,30.7,29.70,WNW,292,0.5,1.1,67,0.00,CLR,,0.00,WeatherDisplay:10.37,2013-01-21 00:05:00,
2013-01-20 19:10:00,40.6,30.5,29.70,WNW,292,0.9,1.1,67,0.00,CLR,,0.00,WeatherDisplay:10.37,2013-01-21 00:10:00,
2013-01-20 19:15:00,40.6,30.5,29.71,NW,315,1.1,2.3,67,0.00,CLR,,0.00,WeatherDisplay:10.37,2013-01-21 00:15:00,
2013-01-20 19:20:00,40.6,30.5,29.71,WNW,292,0.9,4.6,67,0.00,CLR,,0.00,WeatherDisplay:10.37,2013-01-21 00:20:00,
2013-01-20 19:25:00,40.6,28.6,29.71,WNW,292,2.2,4.6,62,0.00,CLR,,0.00,WeatherDisplay:10.37,2013-01-21 00:25:00,
2013-01-20 19:27:00,40.8,28.8,29.71,WSW,248,2.6,4.6,62,0.00,CLR,,0.00,WeatherDisplay:10.37,2013-01-21 00:27:00,
2013-01-20 19:30:00,40.8,28.8,29.71,WSW,248,2.6,4.6,62,0.00,CLR,,0.00,WeatherDisplay:10.37,2013-01-21 00:30:00,
2013-01-20 19:35:00,40.8,28.8,29.71,WSW,248,2.6,4.6,62,0.00,CLR,,0.00,WeatherDisplay:10.37,2013-01-21 00:35:00,
2013-01-20 19:40:00,41.2,25.8,29.72,NW,315,3.3,5.2,54,0.00,CLR,,0.00,WeatherDisplay:10.37,2013-01-21 00:40:00,
2013-01-20 19:45:00,41.2,21.9,29.73,NNW,338,0.7,4.6,46,0.00,CLR,,0.00,WeatherDisplay:10.37,2013-01-21 00:45:00,
2013-01-20 19:50:00,40.8,22.1,29.73,NW,315,2.9,4.6,47,0.00,CLR,,0.00,WeatherDisplay:10.37,2013-01-21 00:50:00,
2013-01-20 19:55:00,40.6,20.9,29.74,WNW,292,0.7,4.6,45,0.00,CLR,,0.00,WeatherDisplay:10.37,2013-01-21 00:55:00,
2013-01-20 20:00:00,40.5,21.8,29.74,West,270,1.1,4.6,47,0.00,CLR,,0.00,WeatherDisplay:10.37,2013-01-21 01:00:00,
2013-01-20 20:05:00,40.3,22.1,29.74,WNW,292,3.3,3.3,48,0.00,CLR,,0.00,WeatherDisplay:10.37,2013-01-21 01:05:00,
2013-01-20 20:10:00,39.9,21.8,29.74,WSW,248,4.7,4.7,48,0.00,CLR,,0.00,WeatherDisplay:10.37,2013-01-21 01:10:00,
2013-01-20 20:15:00,39.9,21.8,29.74,WSW,248,4.7,4.7,48,0.00,CLR,,0.00,WeatherDisplay:10.37,2013-01-21 01:15:00,
2013-01-20 20:23:00,38.8,21.3,29.75,WNW,292,0.9,4.6,49,0.00,CLR,,0.00,WeatherDisplay:10.37,2013-01-21 01:23:00,
2013-01-20 20:28:00,38.8,21.8,29.75,NW,315,1.8,4.6,50,0.00,CLR,,0.00,WeatherDisplay:10.37,2013-01-21 01:28:00,
2013-01-20 20:33:00,38.3,21.3,29.76,NNW,338,3.3,4.6,50,0.00,CLR,,0.00,WeatherDisplay:10.37,2013-01-21 01:33:00,
2013-01-20 20:38:00,38.1,21.1,29.76,NNW,338,4.9,5.8,50,0.00,CLR,,0.00,WeatherDisplay:10.37,2013-01-21 01:38:00,
2013-01-20 20:43:00,37.9,20.5,29.76,NNW,338,2.6,5.8,49,0.00,CLR,,0.00,WeatherDisplay:10.37,2013-01-21 01:43:00,
2013-01-20 20:48:00,37.8,20.8,29.77,West,270,1.1,5.8,50,0.00,CLR,,0.00,WeatherDisplay:10.37,2013-01-21 01:48:00,
2013-01-20 20:49:00,37.6,20.1,29.77,WNW,292,4.7,5.8,49,0.00,CLR,,0.00,WeatherDisplay:10.37,2013-01-21 01:49:00,
2013-01-20 20:53:00,37.6,20.1,29.77,WNW,292,4.7,5.8,49,0.00,CLR,,0.00,WeatherDisplay:10.37,2013-01-21 01:53:00,
2013-01-20 20:58:00,37.6,20.1,29.77,WNW,292,4.7,5.8,49,0.00,CLR,,0.00,WeatherDisplay:10.37,2013-01-21 01:58:00,
2013-01-20 21:02:00,37.0,20.6,29.79,WNW,292,1.1,4.6,51,0.00,CLR,,0.00,WeatherDisplay:10.37,2013-01-21 02:02:00,
2013-01-20 21:03:00,37.0,20.6,29.79,WNW,292,1.1,4.6,51,0.00,CLR,,0.00,WeatherDisplay:10.37,2013-01-21 02:03:00,
2013-01-20 21:08:00,37.0,20.6,29.79,WNW,292,1.1,4.6,51,0.00,CLR,,0.00,WeatherDisplay:10.37,2013-01-21 02:08:00,
2013-01-20 21:13:00,37.0,20.6,29.79,WNW,292,1.1,4.6,51,0.00,CLR,,0.00,WeatherDisplay:10.37,2013-01-21 02:13:00,
2013-01-20 21:18:00,36.3,19.9,29.79,West,270,0.9,4.6,51,0.00,CLR,,0.00,WeatherDisplay:10.37,2013-01-21 02:18:00,
2013-01-20 21:23:00,36.3,19.9,29.79,West,270,0.9,4.6,51,0.00,CLR,,0.00,WeatherDisplay:10.37,2013-01-21 02:23:00,
2013-01-20 21:33:00,35.6,19.2,29.80,West,270,3.3,5.6,51,0.00,CLR,,0.00,WeatherDisplay:10.37,2013-01-21 02:33:00,
2013-01-20 21:38:00,35.4,19.1,29.80,West,270,0.2,4.6,51,0.00,CLR,,0.00,WeatherDisplay:10.37,2013-01-21 02:38:00,
2013-01-20 21:43:00,35.4,19.5,29.80,NNE,22,3.1,4.6,52,0.00,CLR,,0.00,WeatherDisplay:10.37,2013-01-21 02:43:00,
2013-01-20 21:48:00,35.4,19.5,29.80,NNE,22,3.1,4.6,52,0.00,CLR,,0.00,WeatherDisplay:10.37,2013-01-21 02:48:00,
2013-01-20 21:53:00,34.9,18.6,29.81,NNW,338,3.3,4.6,51,0.00,CLR,,0.00,WeatherDisplay:10.37,2013-01-21 02:53:00,
2013-01-20 21:58:00,34.9,18.1,29.82,SSW,202,1.1,4.6,50,0.00,CLR,,0.00,WeatherDisplay:10.37,2013-01-21 02:58:00,
2013-01-20 22:03:00,34.5,18.7,29.82,NNW,338,2.2,3.5,52,0.00,CLR,,0.00,WeatherDisplay:10.37,2013-01-21 03:03:00,
2013-01-20 22:08:00,34.3,18.1,29.83,NNW,338,1.1,8.1,51,0.00,CLR,,0.00,WeatherDisplay:10.37,2013-01-21 03:08:00,
2013-01-20 22:13:00,34.2,17.9,29.82,NNW,338,1.4,8.1,51,0.00,CLR,,0.00,WeatherDisplay:10.37,2013-01-21 03:13:00,
2013-01-20 22:18:00,34.0,16.8,29.83,West,270,2.2,8.1,49,0.00,CLR,,0.00,WeatherDisplay:10.37,2013-01-21 03:18:00,
2013-01-20 22:23:00,34.0,16.8,29.83,SW,225,3.3,8.1,49,0.00,CLR,,0.00,WeatherDisplay:10.37,2013-01-21 03:23:00,
2013-01-20 22:28:00,34.0,16.8,29.83,SW,225,3.3,8.1,49,0.00,CLR,,0.00,WeatherDisplay:10.37,2013-01-21 03:28:00,
2013-01-20 22:33:00,33.3,16.6,29.84,WSW,248,0.5,8.1,50,0.00,CLR,,0.00,WeatherDisplay:10.37,2013-01-21 03:33:00,
2013-01-20 22:38:00,33.1,16.4,29.84,West,270,1.1,5.8,50,0.00,CLR,,0.00,WeatherDisplay:10.37,2013-01-21 03:38:00,
2013-01-20 22:43:00,32.9,16.3,29.84,West,270,3.8,5.8,50,0.00,CLR,,0.00,WeatherDisplay:10.37,2013-01-21 03:43:00,
2013-01-20 22:48:00,32.7,15.6,29.85,WSW,248,2.9,3.5,49,0.00,CLR,,0.00,WeatherDisplay:10.37,2013-01-21 03:48:00,
2013-01-20 22:53:00,32.5,15.5,29.85,West,270,1.1,3.5,49,0.00,CLR,,0.00,WeatherDisplay:10.37,2013-01-21 03:53:00,
2013-01-20 22:58:00,32.4,15.3,29.85,WNW,292,0.2,3.5,49,0.00,CLR,,0.00,WeatherDisplay:10.37,2013-01-21 03:58:00,
2013-01-20 23:03:00,32.2,15.6,29.85,WNW,292,0.5,2.3,50,0.00,CLR,,0.00,WeatherDisplay:10.37,2013-01-21 04:03:00,
2013-01-20 23:08:00,32.2,15.6,29.85,WNW,292,0.5,2.3,50,0.00,CLR,,0.00,WeatherDisplay:10.37,2013-01-21 04:08:00,
2013-01-20 23:13:00,32.0,15.4,29.85,WNW,292,0.0,2.3,50,0.00,CLR,,0.00,WeatherDisplay:10.37,2013-01-21 04:13:00,
2013-01-20 23:18:00,31.5,14.9,29.85,NNE,22,0.7,2.3,50,0.00,CLR,,0.00,WeatherDisplay:10.37,2013-01-21 04:18:00,
2013-01-20 23:23:00,31.3,14.8,29.85,SSW,202,0.7,4.6,50,0.00,CLR,,0.00,WeatherDisplay:10.37,2013-01-21 04:23:00,
2013-01-20 23:28:00,31.3,14.8,29.86,ENE,68,0.9,4.6,50,0.00,CLR,,0.00,WeatherDisplay:10.37,2013-01-21 04:28:00,
2013-01-20 23:33:00,30.9,14.0,29.86,NNW,338,3.3,4.6,49,0.00,CLR,,0.00,WeatherDisplay:10.37,2013-01-21 04:33:00,
2013-01-20 23:38:00,30.9,14.0,29.86,WSW,248,1.1,4.6,49,0.00,CLR,,0.00,WeatherDisplay:10.37,2013-01-21 04:38:00,
2013-01-20 23:43:00,30.7,13.8,29.86,WNW,292,1.1,4.6,49,0.00,CLR,,0.00,WeatherDisplay:10.37,2013-01-21 04:43:00,
2013-01-20 23:48:00,30.7,13.8,29.86,WNW,292,1.1,4.6,49,0.00,CLR,,0.00,WeatherDisplay:10.37,2013-01-21 04:48:00,
2013-01-20 23:53:00,30.7,13.8,29.86,WNW,292,1.1,4.6,49,0.00,CLR,,0.00,WeatherDisplay:10.37,2013-01-21 04:53:00,
2013-01-20 23:58:00,30.4,13.9,29.86,West,270,0.0,4.6,50,0.00,CLR,,0.00,WeatherDisplay:10.37,2013-01-21 04:58:00,